STARLINK-30511, 57978

Orbit data source: Space-Track

STARLINK-30511, 57978 is a payload satellite owned by SpaceX/Seattle (US) in LEO that was launched on Sat, 30 Sep 2023 UTC via an FALCON 9 launch vehicle from the Air Force Eastern Test Range (AFETR). Payload-class satellites include a variety of spacecraft equipped with specific instruments for various scientific and technological missions. These include communications satellites like Starlink; space stations such as the ISS; scientific satellites like the Hubble; Earth observation satellites from companies like Planet Labs, Umbra, and HawkEye 360; GPS; miniature CubeSats for education and research; and military/defense satellites.

Loading next visibility...
Identifier
57978, 2023-151Q
Orbit
LEO
Country
Flag of USUS
Related business
Manufacturer
SpaceX/Seattle
Mission
Operational Commercial Communications
Bus & Motor
STARLINK V2M, Unknown motor
Mass
730 kg wet, ~700 kg dry
Launch date (UTC)
2023-09-30 (3 years ago)
Launch vehicle
FALCON 9
Launch site
Air Force Eastern Test Range (AFETR)
Object type
Payload
Rocket body
Debris
Shape & HBR
Box + 2 Pan, 17.7 m
Radar Cross Section
33.884 m², Large (>1 m²)

Expand to show TLE details & history
Last TLE update: 14 hours ago

TLE from 14 hours ago
0 STARLINK-30511
1 57978U 23151Q   26192.80011993  .00000472  00000-0  26670-4 0  9997
2 57978  43.0041   9.8460 0001651 244.8453 115.2228 15.27576137154577
Epoch: 2026-07-11T19:12Z
TLE epoch observation values (Epoch: 2026-07-11T19:12:10.361Z)
Latitude
-0.00001°
Longitude
152.09468°
Altitude
483.319 km
Speed
7.625 km/s
True Right ascension
00h 39m 23s
True Declination
0° 00' 00"
Sunlit
Object was in daylight at epoch
Visualization orbit readout
Latitude
Unknown
Longitude
Unknown
Altitude
Unknown
Speed
Unknown
Apparent Right ascension
Unknown
Apparent Declination
Unknown
Sunlit
N/A
Visualization observer readout
Local Sidereal Time
21:16:54
Azimuth
Unknown
Elevation
Unknown
Doppler factor
Unknown
Orbital elements
Apogee altitude
486.138 km
Perigee altitude
483.872 km
Semi-major axis
6,863.142 km
Eccentricity
0.00017
Inclination
43.0041°
RAAN
9.846°
Arg. of periapsis
244.8453°
True anomaly
115.23991°
Mean anomaly
115.2228°
Eccentric anomaly
115.23136°
Mean motion
3.81732 °/min
Orbital period
94.31 mins
BSTAR
0.00002667
Loading maneuver chart data...
Computing Atmospheric mass density...
Loading historical data...
Loading historical data...
Loading historical data...
Loading historical data...
Loading historical data...
Loading historical data...
Loading historical data...

Documentation

Showing up to 5 results
|